Tracking 20621 objects as of 31-Mar-2020
HD Live streaming from Space Station
objects crossing your sky now

COSMOS 2160

Track COSMOS 2160 now!
10-day predictions
COSMOS 2160 is classified as:


NORAD ID: 21731
Int'l Code: 1991-068D
Perigee: 1,404.0 km
Apogee: 1,418.1 km
Inclination: 82.6 °
Period: 113.9 minutes
Semi major axis: 7782 km
RCS: 1.112 m2 (large)
Launch date: September 28, 1991
Source: Commonwealth of Independent States (former USSR) (CIS)
Launch site: PLESETSK MISSILE AND SPACE COMPLEX (PKMTR)
aabbcc
Your satellite tracking list
Your tracking list is empty




NASA's NSSDC Master Catalog

Two Line Element Set (TLE):
1 21731U 91068D   20090.85959870 +.00000009 +00000-0 -80289-5 0  9992
2 21731 082.5860 317.0130 0009070 129.0196 243.5654 12.64632823315683
Source of the keplerian elements: AFSPC